Regional Weather Roundup
Issued by NWS

Home | Current Version | Previous Version | Text Only | Print | Product List | Glossary Off
Versions: 1 2 3 4 5 6 7 8 9 10 11 12 13 14 15 16 17 18 19 20 21 22 23 24 25 26 27 28 29 30 31 32 33 34 35 36 37 38 39 40 41 42 43 44 45 46 47 48 49 50

000
ASUS45 KCYS 221410
RWRWY

WYOMING REGIONAL WEATHER ROUNDUP
NATIONAL WEATHER SERVICE CHEYENNE WY
800 AM MDT TUE JUL 22 2014

NOTE:  "FAIR" INDICATES FEW OR NO CLOUDS BELOW 12,000 FEET
WITH NO SIGNIFICANT WEATHER AND/OR OBSTRUCTIONS TO VISIBILITY.

WYZ001-221500-
YELLOWSTONE NATIONAL PARK

CITY           SKY/WX    TMP DP  RH WIND       PRES   REMARKS
LK YELLOWSTONE   N/A     47  45  93 CALM      30.47R
W YELLOWSTONE  NOT AVBL

$$
WYZ002>013-054>058-071-098>099-221500-
NORTHERN WYOMING

CITY           SKY/WX    TMP DP  RH WIND       PRES   REMARKS
JACKSON        SUNNY     52  46  82 CALM      30.40R
CODY           MOSUNNY   68  45  42 SW8       30.24S
GREYBULL       PTSUNNY   65  54  67 SE6       30.19S
WORLAND        MOSUNNY   66  50  56 N6        30.22R
SHERIDAN       MOSUNNY   63  55  75 CALM      30.21R
BUFFALO        PTSUNNY   70  47  43 CALM      30.27R
GILLETTE       PTSUNNY   74  58  57 S8        30.23S
HULETT         FAIR      70  55  60 MISG      30.25
NEWCASTLE      FAIR      68  54  60 SE7       30.26

$$
WYZ014>020-022>026-101>103-221500-
CENTRAL WYOMING

CITY           SKY/WX    TMP DP  RH WIND       PRES   REMARKS
BIG PINEY      SUNNY     54  43  66 SW3       30.44R
PINEDALE       SUNNY     52  41  66 W3        30.44S
DUBOIS         FAIR      55  37  50 NW6       30.42F
LANDER         SUNNY     64  43  46 CALM      30.31R
RIVERTON       SUNNY     65  45  48 VRB3      30.31R
CASPER         SUNNY     64  53  67 SW6       30.31R
DOUGLAS        MOSUNNY   72  56  57 S10       30.31R

$$
WYZ021-027>030-104>119-221500-
SOUTHERN WYOMING

CITY           SKY/WX    TMP DP  RH WIND       PRES   REMARKS
EVANSTON       SUNNY     60  35  39 E6        30.42R
KEMMERER       SUNNY     54  39  58 N6        30.44R
FORT BRIDGER   FAIR      63  35  35 NW3       30.45R
ROCK SPRINGS   SUNNY     63  33  32 SE5       30.39S
DIXON          FAIR      64  34  33 SE5       30.42R
RAWLINS        SUNNY     63  42  46 E5        30.41R
SARATOGA       FAIR      61  34  36 SE3       30.44S
LARAMIE        SUNNY     58  42  55 S7        30.45R
CHEYENNE       SUNNY     64  56  75 N12G25    30.37S
TORRINGTON     SUNNY     69  60  73 W7        30.25R
PINE BLUFFS    FAIR      64  55  72 N10G18    30.31R

$$


USA.gov is the U.S. government's official web portal to all federal, state and local government web resources and services.